Location: Newark
(7.0858°N, 171.3717°E)
Time: 16:40:42
(UTC+00:00)

Transit 2A - Pass Details

Date: 02 December 2020
Orbit: 598 x 960 km, 66.7° (Epoch: 20 January)

Event Time Altitude Azimuth Distance (km) Brightness Sun altitude
Rises 16:01:11 0° 319° (NW) 2,937 - -35.7°
Reaches altitude 10° 16:03:52 10° 305° (NW) 1,988 - -35.1°
Maximum altitude 16:07:23 23° 252° (WSW) 1,295 - -34.3°
Drops below altitude 10° 16:10:48 10° 199° (SSW) 1,932 - -33.5°
Exits shadow 16:13:06 - 185° (S) 2,727 9.1 -33.0°
Sets 16:13:24 0° 184° (S) 2,833 9.2 -32.9°
